Regional Weather Roundup
Issued by NWS

Home | Current Version | Previous Version | Graphics & Text | Print | Product List | Glossary On
Versions: 1 2 3 4 5 6 7 8 9 10 11 12 13 14 15 16 17 18 19 20 21 22 23 24 25 26 27 28 29 30 31 32 33 34 35 36 37 38 39 40 41 42 43 44 45 46 47 48 49 50
000
ASUS45 KSLC 281610
RWRUT

UTAH REGIONAL WEATHER ROUNDUP
NATIONAL WEATHER SERVICE SALT LAKE CITY UT
1000 AM MDT SAT MAR 28 2015

UTZ001>011-023>025-281700-

NORTHERN UTAH

CITY           SKY/WX    TMP DP  RH WIND       PRES   REMARKS
BRIGHAM CITY   MOSUNNY   54  39  57 CALM      30.12S
HILL AFB       MOSUNNY   57  31  37 E5        30.13R
LOGAN          SUNNY     49  39  68 NW5       30.11R
OGDEN          MOSUNNY   57  32  38 CALM      30.12R
PROVO AIRPORT  MOSUNNY   55  32  41 SE7       30.16F
SALT LAKE CITY MOSUNNY   60  32  34 SE8       30.10R
VERNAL         SUNNY     55  27  34 E3        30.19S
WENDOVER       SUNNY     63  28  27 SW3       30.14R
HEBER CITY     MOSUNNY   45  32  61 CALM      30.19F
WEST JORDAN    SUNNY     61  34  36 S16       30.12S

$$

UTZ012>022-026-027-281700-

SOUTHERN/CENTRAL UTAH

CITY           SKY/WX    TMP DP  RH WIND       PRES   REMARKS
BLANDING       SUNNY     58  24  26 SW5       30.32S
BRYCE CANYON   SUNNY     53  27  36 CALM      30.34R
CEDAR CITY     SUNNY     60  24  25 CALM      30.24S
DELTA          SUNNY     59  25  27 S13       30.17S
HANKSVILLE     SUNNY     52  23  32 CALM      30.21S
MILFORD        SUNNY     61  25  25 SW15      30.19S
MOAB/CYNLANDS  SUNNY     60  25  26 SE9       30.18R
PRICE          SUNNY     58  26  29 S5        30.21S
ST GEORGE      MOSUNNY   57  27  30 CALM      30.20S
KANAB          SUNNY     55  30  38 CALM      30.29R

$$

REGIONAL REPORTS     COLORADO/ARIZONA

CITY           SKY/WX    TMP DP  RH WIND       PRES   REMARKS
CRAIG, CO      SUNNY     50  34  54 CALM      30.22F
GRAND JUNCTION SUNNY     56  29  35 SE6       30.21R
RIFLE          SUNNY     50  29  44 E6        30.25S
MONTROSE       SUNNY     55  25  31 CALM      30.26F
CORTEZ         SUNNY     54  28  36 CALM      30.27S
PAGE, AZ       SUNNY     61  24  24 CALM      30.21R
GRAND CANYON   SUNNY     59  23  25 VRB5      30.32R
KINGMAN        SUNNY     70  27  20 CALM      30.18R
FLAGSTAFF      SUNNY     58  19  22 VRB3      30.33S

$$

REGIONAL REPORTS    NEVADA/IDAHO/WYOMING

CITY           SKY/WX    TMP DP  RH WIND       PRES   REMARKS
LAS VEGAS, NV  SUNNY     71  26  18 SW5       30.07R
ELY            SUNNY     58  21  24 E5        30.25R
ELKO           MOSUNNY   52  30  43 SW6       30.23R
POCATELLO, ID  SUNNY     60  31  33 SW30G37   30.07S
BURLEY         LGT RAIN  59  30  33 W25G40    30.11R
EVANSTON, WY   SUNNY     53  28  38 SW15      30.19S
ROCK SPRINGS   SUNNY     52  27  38 VRB3      30.16F
KEMMERER       SUNNY     50  30  46 SW6       30.18S

$$


USA.gov is the U.S. government's official web portal to all federal, state and local government web resources and services.